TimeCDT,TemperatureF,Dew PointF,Humidity,Sea Level PressureIn,VisibilityMPH,Wind Direction,Wind SpeedMPH,Gust SpeedMPH,PrecipitationIn,Events,Conditions,WindDirDegrees,DateUTC
12:53 AM,37.9,21.9,53,30.25,10.0,East,4.6,-,N/A,,Clear,80,2013-05-10 05:53:00
1:53 AM,36.0,21.0,55,30.24,10.0,East,5.8,-,N/A,,Clear,100,2013-05-10 06:53:00
2:53 AM,34.0,21.9,61,30.22,10.0,ESE,5.8,-,N/A,,Clear,110,2013-05-10 07:53:00
3:53 AM,36.0,21.9,57,30.20,10.0,SE,6.9,-,N/A,,Clear,130,2013-05-10 08:53:00
4:53 AM,35.1,21.9,59,30.20,10.0,SE,6.9,-,N/A,,Clear,140,2013-05-10 09:53:00
5:53 AM,32.0,23.0,69,30.19,10.0,SSE,4.6,-,N/A,,Clear,160,2013-05-10 10:53:00
6:53 AM,35.1,26.1,70,30.18,10.0,South,6.9,-,N/A,,Clear,180,2013-05-10 11:53:00
7:53 AM,41.0,27.0,57,30.15,10.0,South,10.4,-,N/A,,Clear,170,2013-05-10 12:53:00
8:53 AM,45.0,26.1,48,30.14,10.0,South,11.5,20.7,N/A,,Clear,180,2013-05-10 13:53:00
9:53 AM,48.9,26.1,41,30.10,10.0,South,9.2,21.9,N/A,,Partly Cloudy,170,2013-05-10 14:53:00
10:53 AM,53.1,28.9,40,30.07,10.0,South,11.5,20.7,N/A,,Clear,180,2013-05-10 15:53:00
11:53 AM,53.6,33.8,47,30.01,10.0,South,16.1,25.3,N/A,,Clear,190,2013-05-10 16:53:00
12:53 PM,53.1,32.0,45,30.01,10.0,SSW,12.7,20.7,N/A,,Clear,210,2013-05-10 17:53:00
1:53 PM,55.0,32.0,42,29.99,10.0,South,11.5,-,N/A,,Overcast,180,2013-05-10 18:53:00
2:53 PM,57.0,34.0,42,29.95,10.0,South,9.2,-,N/A,,Overcast,180,2013-05-10 19:53:00
3:53 PM,57.9,35.1,42,29.92,10.0,SW,13.8,-,N/A,,Overcast,230,2013-05-10 20:53:00
4:53 PM,55.9,37.0,49,29.92,10.0,WSW,9.2,16.1,0.00,Rain,Light Rain,250,2013-05-10 21:53:00
5:37 PM,44.6,42.8,93,29.92,10.0,North,15.0,-,0.04,Rain,Light Rain,360,2013-05-10 22:37:00
5:53 PM,45.0,42.1,90,29.97,9.0,North,13.8,-,0.04,Rain,Light Rain,350,2013-05-10 22:53:00
6:53 PM,45.0,42.1,90,29.98,10.0,NNW,9.2,-,0.01,,Overcast,340,2013-05-10 23:53:00
7:53 PM,43.0,36.0,76,30.01,10.0,NNW,17.3,23.0,N/A,,Scattered Clouds,330,2013-05-11 00:53:00
8:53 PM,37.9,30.9,76,30.04,10.0,NNW,12.7,-,N/A,,Clear,340,2013-05-11 01:53:00
9:53 PM,37.9,30.0,73,30.06,10.0,NNW,13.8,-,N/A,,Clear,330,2013-05-11 02:53:00
10:53 PM,37.0,28.9,73,30.06,10.0,NW,16.1,-,N/A,,Clear,320,2013-05-11 03:53:00
11:53 PM,35.1,28.9,78,30.07,10.0,NNW,10.4,-,N/A,,Clear,330,2013-05-11 04:53:00